Melbourne, FL

10:13 AM EDT on September 28, 2016 (GMT -0400)
Melbourne International

Weather History for KMLB - February, 2013

Change the Weather History Date:

Friday, February 22, 2013

  Actual Average Record
Temperature  
Mean Temperature 69 °F 63 °F  
Max Temperature 79 °F 74 °F 88 °F (1962)
Min Temperature 59 °F 53 °F 34 °F (1977)
Degree Days  
Heating Degree Days 0 4  
Month to date heating degree days 90 100  
Since 1 July heating degree days 282 469  
Cooling Degree Days 4 2  
Month to date cooling degree days 54 44  
Year to date cooling degree days 158 88  
Growing Degree Days 19 (Base 50)    
Moisture  
Dew Point 67 °F    
Average Humidity 87    
Maximum Humidity 100    
Minimum Humidity 74    
Precipitation  
Precipitation 0.00 in 0.09 in 0.75 in (1964)
Month to date precipitation 0.89 1.95  
Year to date precipitation 2.55 4.22  
Sea Level Pressure  
Sea Level Pressure 30.07 in    
Wind  
Wind Speed 9 mph (SE)    
Max Wind Speed 20 mph    
Max Gust Speed 24 mph    
Visibility 7 miles    
Events Fog    
T = Trace of Precipitation, MM = Missing Value Source: NWS Daily Summary

Daily Weather History Graph

Daily Weather History Graph

Search for Another Location

Airport or City:

Trip Planner

Search our weather history database for the weather conditions in past years. The results will help you decide how hot, cold, wet, or windy it might be!

Date:

Astronomy

Feb. 22, 2013 Rise Set
Actual Time 6:53 AM EST 6:18 PM EST
Civil Twilight 6:30 AM EST 6:42 PM EST
Nautical Twilight 6:02 AM EST 7:09 PM EST
Astronomical Twilight 5:35 AM EST 7:36 PM EST
Moon 3:37 PM EST (2/22) 4:27 AM EST (2/22)
Length of Visible Light 12h 12m
Length of Day
11h 24m
Waxing Gibbous, 90% of the Moon is Illuminated
Feb 22
Waxing Gibbous
Feb 25
Full
Mar 4
Last Quarter
Mar 11
New
Mar 19
First Quarter

Hourly Weather History & Observations

Time (EST) Temp. Dew Point Humidity Pressure Visibility Wind Dir Wind Speed Gust Speed Precip Events Conditions
12:53 AM 69.1 °F 66.9 °F 93% 30.06 in 10.0 mi SSE 4.6 mph - N/A   Clear
1:53 AM 69.1 °F 66.9 °F 93% 30.05 in 10.0 mi SSE 3.5 mph - N/A   Clear
2:53 AM 66.9 °F 64.9 °F 93% 30.05 in 10.0 mi SSW 3.5 mph - N/A   Clear
3:53 AM 66.0 °F 66.0 °F 100% 30.04 in 10.0 mi SSW 3.5 mph - N/A   Clear
4:35 AM 64.4 °F 64.4 °F 100% 30.05 in 1.0 mi Calm Calm - N/A   Mist
4:42 AM 62.6 °F 62.6 °F 100% 30.05 in 0.2 mi Calm Calm - N/A Fog Fog
4:45 AM 62.6 °F 62.6 °F 100% 30.05 in 0.5 mi Calm Calm - N/A Fog Fog
4:53 AM 62.1 °F 62.1 °F 100% 30.05 in 0.5 mi Calm Calm - N/A Fog Fog
5:13 AM 62.6 °F 62.6 °F 100% 30.06 in 0.5 mi Calm Calm - N/A Fog Fog
5:53 AM 62.1 °F 62.1 °F 100% 30.07 in 0.5 mi Calm Calm - N/A Fog Fog
5:56 AM 60.8 °F 60.8 °F 100% 30.07 in 3.0 mi Calm Calm - N/A   Scattered Clouds
6:42 AM 62.6 °F 62.6 °F 100% 30.08 in 1.5 mi Calm Calm - N/A   Scattered Clouds
6:53 AM 62.1 °F 62.1 °F 100% 30.08 in 0.5 mi Calm Calm - N/A Fog Fog
7:03 AM 62.6 °F 62.6 °F 100% 30.09 in 0.2 mi Calm Calm - N/A Fog Fog
7:19 AM 62.6 °F 62.6 °F 100% 30.09 in 0.2 mi Calm Calm - N/A Fog Fog
7:32 AM 62.6 °F 62.6 °F 100% 30.09 in 1.0 mi Calm Calm - N/A   Mostly Cloudy
7:37 AM 64.4 °F 64.4 °F 100% 30.09 in 3.0 mi Calm Calm - N/A   Mostly Cloudy
7:53 AM 64.9 °F 64.9 °F 100% 30.10 in 9.0 mi Calm Calm - N/A   Mostly Cloudy
8:53 AM 70.0 °F 69.1 °F 97% 30.12 in 10.0 mi Variable 3.5 mph - N/A   Mostly Cloudy
9:16 AM 73.4 °F 69.8 °F 88% 30.11 in 10.0 mi SE 8.1 mph - N/A   Partly Cloudy
9:43 AM 75.2 °F 68.0 °F 78% 30.11 in 10.0 mi SE 11.5 mph - N/A   Mostly Cloudy
9:53 AM 75.9 °F 68.0 °F 76% 30.11 in 10.0 mi SE 11.5 mph - N/A   Overcast
10:53 AM 77.0 °F 69.1 °F 76% 30.11 in 10.0 mi ESE 16.1 mph 19.6 mph N/A   Mostly Cloudy
11:53 AM 77.0 °F 69.1 °F 76% 30.09 in 10.0 mi SE 13.8 mph - N/A   Mostly Cloudy
12:53 PM 78.1 °F 70.0 °F 76% 30.06 in 10.0 mi ESE 16.1 mph 23.0 mph N/A   Mostly Cloudy
1:00 PM 78.8 °F 69.8 °F 74% 30.07 in 10.0 mi SE 13.8 mph 23.0 mph N/A   Scattered Clouds
1:53 PM 78.1 °F 69.1 °F 74% 30.05 in 10.0 mi ESE 17.3 mph - N/A   Scattered Clouds
2:53 PM 77.0 °F 70.0 °F 79% 30.04 in 10.0 mi SE 15.0 mph - N/A   Clear
3:53 PM 77.0 °F 70.0 °F 79% 30.03 in 10.0 mi SE 16.1 mph - N/A   Clear
4:53 PM 75.0 °F 69.1 °F 82% 30.03 in 10.0 mi ESE 15.0 mph 20.7 mph N/A   Clear
5:53 PM 73.0 °F 69.1 °F 87% 30.03 in 10.0 mi ESE 13.8 mph - N/A   Clear
6:53 PM 73.0 °F 70.0 °F 90% 30.04 in 10.0 mi ESE 10.4 mph - N/A   Clear
7:53 PM 73.9 °F 70.0 °F 87% 30.06 in 10.0 mi SE 15.0 mph - N/A   Mostly Cloudy
8:53 PM 73.0 °F 70.0 °F 90% 30.06 in 10.0 mi SE 17.3 mph 21.9 mph N/A   Scattered Clouds
9:53 PM 73.0 °F 70.0 °F 90% 30.07 in 10.0 mi SSE 8.1 mph - N/A   Clear
10:53 PM 72.0 °F 70.0 °F 93% 30.07 in 10.0 mi SSE 6.9 mph - N/A   Clear
11:53 PM 72.0 °F 70.0 °F 93% 30.06 in 10.0 mi South 6.9 mph - N/A   Mostly Cloudy